Regional Weather Roundup
Issued by NWS Cleveland, OH

Home | Current Version | Previous Version | Graphics & Text | Print | Product List | Glossary On
Versions: 1 2 3 4 5 6 7 8 9 10 11 12 13 14 15 16 17 18 19 20 21 22 23 24 25 26 27 28 29 30 31 32 33 34 35 36 37 38 39 40 41 42 43 44 45 46 47 48 49 50
947
ASUS41 KCLE 080610
RWRCLE
OHIO REGIONAL WEATHER ROUNDUP
NATIONAL WEATHER SERVICE WILMINGTON, OH
100 AM EST THU DEC 08 2016

NOTE: "FAIR" INDICATES FEW OR NO CLOUDS BELOW 12,000 FEET WITH NO
SIGNIFICANT WEATHER AND/OR OBSTRUCTIONS TO VISIBILITY.

OHZ001>008-015>018-024>027-034-035-043-044-080700-
   NORTHWEST OHIO

CITY           SKY/WX    TMP DP  RH WIND       PRES   REMARKS
DEFIANCE       CLOUDY    29  18  63 W10G22    30.11R WCI  20
FINDLAY        FAIR      29  20  69 W18G28    30.09S WCI  16
TOLEDO EXPRESS CLOUDY    28  20  71 W15       30.08R WCI  16
TOLEDO EXEC    CLOUDY    30  21  69 W16       30.08S WCI  19
LIMA           FAIR      28  22  78 W17       30.10F WCI  16
$$

OHZ009>014-019>023-028>033-038-089-080700-
   NORTHEAST OHIO

CITY           SKY/WX    TMP DP  RH WIND       PRES   REMARKS
CLE-HOPKINS    CLOUDY    33  22  63 W13G21    30.08S WCI  24
CLE-LAKEFRONT  CLOUDY    33  23  66 SW18G25   30.05F WCI  22
CUY CO. ARPT   NOT AVBL
LORAIN-ELYRIA  CLOUDY    30  22  72 W10       30.06F WCI  21
ASHTABULA      CLOUDY    32  25  75 SW12      30.02F WCI  23
AKRON-CANTON   CLOUDY    32  22  66 W14       30.04F WCI  22
WOOSTER        CLOUDY    31  22  69 W14       30.05F WCI  21
MANSFIELD      CLOUDY    29  21  72 W12G22    30.05F WCI  19
YOUNGSTOWN     CLOUDY    33  22  63 W10       30.02F WCI  25
$$

OHZ042-051>053-060>062-070>072-077>081-080700-
  SOUTHWEST OHIO

CITY           SKY/WX    TMP DP  RH WIND       PRES   REMARKS
CINC-COVINGTON MOCLDY    31  21  66 W16       30.17R WCI  20
CINC-LUNKEN    MOCLDY    34  23  64 W9        30.20R WCI  27
HAMILTON       FAIR      31  24  75 W7        30.19S WCI  24
DAYTON         CLOUDY    29  22  75 W15       30.14R WCI  18
WRIGHT-PAT AFB FAIR      31  23  73 W9        30.14R WCI  22
DAYTON GENERAL FAIR      30  21  69 W9        30.14R WCI  22
WILMINGTON     MOCLDY    31  22  69 W10       30.12F WCI  22
$$

OHZ036-037-039>041-045>050-054>059-063>069-073>076-082>088-080700-
  CENTRAL AND SOUTHEAST OHIO

CITY           SKY/WX    TMP DP  RH WIND       PRES   REMARKS
COLUMBUS       CLOUDY    33  25  72 W12       30.11S WCI  24
OSU AIRPORT    FAIR      31  24  75 W13       30.10F WCI  21
BOLTON FIELD   CLOUDY    32  24  72 W6        30.11F WCI  26
RICKENBACK AFB   N/A     32  25  75 W8        30.11F WCI  25
NEWARK         CLOUDY    34  23  64 W9        30.09S WCI  27
MARION         MOCLDY    30  22  72 W14G23    30.09F WCI  19
LANCASTER      CLOUDY    32  25  75 CALM      30.11F
ZANESVILLE     CLOUDY    34  24  67 W6        30.09F WCI  29
NEW PHILLY     CLOUDY    34  24  67 W5        30.08F WCI  30
$$




USA.gov is the U.S. government's official web portal to all federal, state and local government web resources and services.